Location: Kikino
(54.4440°N, 112.0940°W)
Time: 19:17:47
(UTC+00:00)

A-11 Canister half - Pass Details

Date: 24 May 2024
Orbit: 1525 x 1683 km, 47.3° (Epoch: 12 June)

Event Time Altitude Azimuth Distance (km) Brightness Sun altitude
Rises 10:27:27 0° 283° (WNW) 4,781 11.3 -5.2°
Reaches altitude 10° 10:31:02 10° 273° (W) 3,818 10.7 -4.8°
Maximum altitude 10:38:52 29° 219° (SW) 2,670 9.7 -4.0°
Drops below altitude 10° 10:46:53 10° 165° (SSE) 3,904 10.9 -3.2°
Sets 10:50:37 0° 155° (SSE) 4,905 11.5 -2.8°
